This demonstration page uses our WeatherBlox Daily Observations layout. Learn more.

38.89511, -77.03637

Hourly Observations for April 22, 2017

Temp ( °F °C ) Dew Point ( °F °C ) Humidity (%) Winds ( mph kmh ) Pressure ( in mb ) Visibility ( mi km ) Precip ( " mm )
12:43 am 00:43 Cloudy 64 17.8 61 16.1 90 90 NE 9 15 29.88 1012 10 16.09344 0 0
12:52 am 00:52 Cloudy 64 17.8 61 16.1 90 90 NE 9 15 29.85 1011 10 16.09344 0 0
1:15 am 01:15 Cloudy 64 17.8 61 16.1 90 90 ENE 8 13 29.88 1012 10 16.09344 0 0
1:24 am 01:24 Cloudy 64 18 61 16 88 88 NE 6 9 29.88 1012 10 16.09344 0 0
1:52 am 01:52 Cloudy 64 17.8 61 16.1 90 90 NNE 7 11 29.85 1011 10 16.09344 0 0
2:52 am 02:52 Mostly Cloudy 63 17.2 60 15.6 90 90 NE 8 13 29.83 1010 10 16.09344 0 0
3:13 am 03:13 Cloudy with Light Rain 63 17.2 60 15.6 90 90 NNE 8 13 29.85 1011 9 14.484096 0.001 0.001
3:52 am 03:52 Cloudy with Light Rain 62 16.7 60 15.6 93 93 NE 9 15 29.85 1011 8 12.874752 0.001 0.001
4:52 am 04:52 Cloudy with Light Rain 61 16.1 59 15 93 93 NNE 10 17 29.85 1011 5 8.04672 0.02 0.508
5:18 am 05:18 Cloudy with Light Rain 61 16 59 15 94 94 NNE 6 9 29.88 1012 5 8.04672 0 0
5:52 am 05:52 Cloudy with Light Rain 61 16.1 59 15 93 93 NE 6 9 29.85 1011 5 8.04672 0.001 0.001
6:19 am 06:19 Cloudy with Light Rain 61 16.1 59 15 93 93 NNE 8 13 29.88 1012 5 8.04672 0.001 0.001
6:33 am 06:33 Cloudy with Light Rain 61 16.1 59 15 93 93 NNE 9 15 29.88 1012 4 6.437376 0.001 0.001
6:42 am 06:42 Cloudy with Light Rain 61 16 59 15 94 94 NE 9 15 29.88 1012 4 6.437376 0 0
6:52 am 06:52 Cloudy with Light Rain 61 16.1 59 15 93 93 NNE 9 15 29.88 1012 5 8.04672 0.001 0.001
7:27 am 07:27 Cloudy with Mist and Fog 61 16.1 59 15 93 93 NE 10 17 29.91 1013 4 6.437376 0.001 0.001
7:44 am 07:44 Cloudy with Mist and Fog 61 16 59 15 94 94 ENE 12 19 29.88 1012 4 6.437376 0 0
7:52 am 07:52 Cloudy with Mist and Fog 61 16.1 59 15 93 93 NE 9 15 29.88 1012 3 4.828032 0.001 0.001
8:31 am 08:31 Cloudy with Mist and Fog 61 16.1 59 15 93 93 NE 12 19 29.91 1013 4 6.437376 0 0
8:52 am 08:52 Cloudy with Mist and Fog 61 16.1 59 15 93 93 NNE 8 13 29.88 1012 3 4.828032 0 0
8:58 am 08:58 Cloudy with Mist and Fog 61 16 59 15 94 94 NNE 12 19 29.91 1013 4 6.437376 0 0
9:05 am 09:05 Cloudy with Mist and Fog 62 16.7 58 14.4 86 86 NE 12 19 29.91 1013 4 6.437376 0 0
9:19 am 09:19 Cloudy with Light Rain 61 16.1 58 14.4 90 90 NE 13 20 29.91 1013 4 6.437376 0.001 0.001
9:39 am 09:39 Cloudy with Light Rain 61 16.1 59 15 93 93 ENE 10 17 29.91 1013 4 6.437376 0.001 0.001
9:52 am 09:52 Cloudy with Light Rain 61 16.1 58 14.4 90 90 NE 12 19 29.88 1012 3 4.828032 0.001 0.001
10:24 am 10:24 Cloudy with Light Rain 61 16 57 14 88 88 NE 9 15 29.91 1013 2.5 4.02336 0 0
10:41 am 10:41 Cloudy with Mist and Fog 61 16.1 58 14.4 90 90 NE 9 15 29.91 1013 3 4.828032 0.01 0.254
10:52 am 10:52 Cloudy with Mist and Fog 60 15.6 58 14.4 93 93 NE 13 20 29.91 1013 4 6.437376 0.01 0.254
11:13 am 11:13 Cloudy with Light Rain 60 15.6 58 14.4 93 93 NE 13 20 29.94 1014 4 6.437376 0.001 0.001
11:23 am 11:23 Cloudy with Light Rain 60 15.6 57 13.9 90 90 NE 15 24 29.94 1014 2.5 4.02336 0.001 0.001
11:37 am 11:37 Cloudy with Light Rain 59 15 58 14.4 96 96 NNE 10 17 29.94 1014 1.75 2.816352 0.01 0.254
11:52 am 11:52 Cloudy with Light Rain 59 15 58 14.4 96 96 NNE 9 15 29.91 1013 2.5 4.02336 0.02 0.508
11:59 am 11:59 Cloudy with Light Rain 59 15 57 13.9 93 93 NNE 8 13 29.94 1014 4 6.437376 0.001 0.001
12:13 pm 12:13 Cloudy with Light Rain 59 15 57 13.9 93 93 N 14 22 29.94 1014 2.5 4.02336 0.01 0.254
12:44 pm 12:44 Cloudy with Rain 57 14 55 13 94 94 N 15 24 29.94 1014 3 4.828032 0 0
12:52 pm 12:52 Cloudy with Light Rain 57 13.9 55 12.8 93 93 N 13 20 29.94 1014 6 9.656064 0.08 2.032
1:03 pm 13:03 Cloudy with Light Rain 57 14 55 13 94 94 NNW 16 26 29.97 1015 6 9.656064 0 0
1:52 pm 13:52 Cloudy with Light Rain 56 13.3 54 12.2 93 93 NNE 14 22 29.94 1014 7 11.265408 0.03 0.762
1:59 pm 13:59 Cloudy with Light Rain 56 13.3 54 12.2 93 93 NNE 14 22 29.97 1015 8 12.874752 0.001 0.001
2:34 pm 14:34 Cloudy with Light Rain 55 13 54 12 94 94 NNE 9 15 29.97 1015 6 9.656064 0 0
2:52 pm 14:52 Cloudy with Light Rain 56 13.3 54 12.2 93 93 NE 12 19 29.94 1014 8 12.874752 0.06 1.524
3:07 pm 15:07 Cloudy with Light Rain 56 13.3 54 12.2 93 93 NNE 10 17 29.94 1014 5 8.04672 0.01 0.254
3:52 pm 15:52 Cloudy with Light Rain 56 13.3 52 11.1 87 87 N 12 19 29.94 1014 10 16.09344 0.03 0.762
4:09 pm 16:09 Cloudy with Light Rain 56 13.3 53 11.7 90 90 N 12 19 29.97 1015 9 14.484096 0.001 0.001
4:29 pm 16:29 Cloudy with Light Rain 56 13.3 53 11.7 90 90 N 14 22 29.97 1015 7 11.265408 0.02 0.508
4:36 pm 16:36 Cloudy with Light Rain 55 12.8 52 11.1 90 90 N 14 22 29.97 1015 9 14.484096 0.02 0.508
4:52 pm 16:52 Cloudy with Light Rain 55 12.8 53 11.7 93 93 N 13 20 29.97 1015 6 9.656064 0.04 1.016
5:08 pm 17:08 Cloudy with Nearby Thunderstorms 55 13 52 11 88 88 N 14 22 29.97 1015 10 16.09344 0 0
5:33 pm 17:33 Cloudy with Light Rain 55 12.8 53 11.7 93 93 NNW 12 19 30 1016 10 16.09344 0.01 0.254
5:52 pm 17:52 Cloudy with Light Rain 54 12.2 52 11.1 93 93 N 15 24 29.97 1015 10 16.09344 0.02 0.508
5:56 pm 17:56 Cloudy with Light Rain 54 12.2 52 11.1 93 93 N 15 24 30 1016 10 16.09344 0.001 0.001
6:40 pm 18:40 Cloudy 54 12 50 10 88 88 N 15 24 30 1016 10 16.09344 0 0
6:52 pm 18:52 Cloudy with Light Rain 54 12.2 50 10 87 87 N 14 22 29.97 1015 10 16.09344 0.001 0.001
7:52 pm 19:52 Cloudy 54 12.2 50 10 87 87 NNE 8 13 29.97 1015 10 16.09344 0.001 0.001
8:44 pm 20:44 Cloudy 54 12 52 11 94 94 N 13 20 30 1016 10 16.09344 0 0
8:52 pm 20:52 Cloudy 54 12.2 50 10 87 87 N 13 20 30 1016 10 16.09344 0 0
9:15 pm 21:15 Cloudy 54 12.2 50 10 87 87 NNW 12 19 30.03 1017 10 16.09344 0 0
9:52 pm 21:52 Mostly Cloudy 53 11.7 50 10 89 89 NNW 10 17 30 1016 10 16.09344 0 0
10:52 pm 22:52 Mostly Cloudy 52 11.1 50 10 93 93 NW 6 9 30.03 1017 10 16.09344 0 0
11:52 pm 23:52 Mostly Cloudy 52 11.1 49 9.4 89 89 NW 6 9 30.03 1017 10 16.09344 0 0

Powered by AerisWeather